RH
28 28 28 28 27 23 17 13 11 11 10 9 9 8 8 7 7 7 8 8 8 9 9 9 9 9 9 8 7 6 4 3 3 3 6 8 5 5 6 5 5 6 7 4 7 11 7 20 39 43 49 53 58 60 57 69 78 81 92 98 97 99 95 88 84 82 83 86 89 82 69 71 73 66 63 65 64 62 63 62 64 66 67 72 77 81 85 86
28 27 27 28 28 27 23 18 14 13 11 10 10 10 10 10 10 10 11 12 12 12 12 11 10 9 8 7 7 6 3 3 1 3 8 9 6 4 5 7 5 5 5 3 6 10 8 14 26 36 48 51 50 51 57 73 79 83 94 96 95 94 86 76 73 75 72 74 87 85 70 68 71 64 63 69 67 62 63 64 66 69 73 76 79 84 86 85
28 26 27 28 27 27 27 25 23 21 19 18 17 16 16 15 16 16 18 18 19 19 19 18 15 13 10 7 7 4 5 12 9 10 15 12 9 5 5 7 6 6 6 5 5 10 12 13 23 34 42 43 38 48 64 75 80 80 85 94 92 81 78 74 70 72 66 70 87 85 70 69 70 62 64 72 69 64 65 66 68 71 75 78 81 84 83 83
27 26 26 28 27 26 26 25 25 25 24 23 23 23 23 23 23 23 23 23 23 22 22 22 21 18 14 9 7 4 12 27 24 18 19 16 14 9 7 8 8 6 6 6 5 11 16 18 28 31 31 32 28 47 72 75 77 80 79 84 83 73 73 73 68 71 68 70 83 82 75 76 72 63 66 70 69 69 65 64 67 70 74 77 80 82 82 82
27 27 26 28 28 27 26 25 24 24 24 24 24 24 24 24 24 24 24 23 22 21 21 20 20 20 17 12 6 3 16 33 29 19 20 21 20 15 11 8 6 5 4 5 5 9 17 23 30 28 25 28 27 43 67 72 73 80 75 69 72 71 74 77 71 71 72 72 80 82 77 77 73 68 69 69 68 65 61 62 64 67 72 75 79 80 81 79
26 27 26 26 27 27 27 27 26 26 26 25 26 26 26 25 24 24 22 21 20 19 20 18 19 20 17 12 7 5 16 28 26 22 23 24 23 20 17 12 6 4 2 3 6 7 14 24 27 24 25 29 33 36 47 63 70 76 76 68 71 72 79 90 81 76 78 80 86 84 73 74 78 73 72 73 65 56 57 61 61 66 70 72 76 78 78 76
25 27 27 26 25 26 27 27 27 27 27 27 27 27 27 27 26 25 23 23 22 22 21 19 19 18 15 11 8 10 16 24 24 22 24 23 22 21 18 15 9 4 2 3 5 7 12 22 24 23 28 30 33 30 33 57 66 69 80 82 85 86 91 96 89 84 84 87 93 84 74 82 88 82 79 76 61 52 56 61 62 66 68 69 73 74 73 71
24 25 28 27 26 25 25 27 27 27 27 27 26 26 26 27 27 27 25 24 22 23 20 18 16 14 15 11 11 18 21 26 24 18 19 21 22 22 18 15 11 5 2 3 4 8 12 18 23 25 31 30 28 25 34 61 67 67 84 89 92 96 96 93 91 92 88 90 92 84 82 86 85 83 84 77 59 51 58 61 63 65 67 68 70 70 70 68
24 24 25 27 26 24 24 25 26 26 26 25 24 24 24 25 27 28 27 23 21 22 17 13 13 11 13 9 14 25 23 22 20 13 12 18 23 22 18 14 11 7 2 3 3 7 13 19 25 27 31 30 24 25 40 66 67 66 84 91 94 98 96 92 92 96 94 93 88 84 89 86 78 79 80 72 57 53 58 62 63 64 66 68 67 67 67 66
24 23 23 24 24 23 24 25 25 25 25 24 23 23 24 25 27 28 26 23 22 24 17 10 9 10 12 10 14 22 20 16 14 11 10 19 24 18 15 14 10 7 2 3 3 9 19 24 27 27 31 27 27 40 47 60 69 75 88 92 94 97 97 97 97 98 95 94 89 85 91 88 80 82 78 66 57 56 60 63 62 62 63 64 66 65 64 63
23 23 22 22 23 23 23 24 24 24 24 23 22 23 25 25 27 26 24 22 22 25 20 13 11 11 16 19 18 17 17 16 12 10 11 18 21 15 13 10 7 5 2 2 5 17 25 26 27 28 31 24 37 67 65 63 78 86 89 92 93 92 94 96 97 99 94 95 92 84 89 89 83 85 77 61 57 58 59 62 62 61 61 60 62 62 60 61
22 21 22 21 21 22 23 24 23 23 23 22 22 23 25 26 26 24 22 22 23 26 23 17 14 16 23 26 20 15 15 15 13 13 11 12 14 14 14 8 4 4 1 2 9 24 29 27 27 25 27 22 33 68 80 77 82 83 84 91 92 87 92 96 95 97 94 97 92 81 88 92 89 87 75 61 57 59 58 60 61 59 59 58 59 59 58 59
21 20 20 20 20 21 22 22 22 22 22 22 22 23 25 25 24 22 21 23 25 28 27 24 18 19 28 26 16 16 17 16 16 14 11 9 10 14 17 11 8 6 2 3 12 27 30 28 25 18 19 17 23 55 78 76 75 79 80 88 93 89 95 98 94 94 92 96 91 84 92 97 93 83 76 68 56 57 60 59 60 59 58 57 57 57 56 57
18 19 18 18 18 20 21 21 21 21 22 22 22 24 25 26 24 22 23 25 26 27 28 30 26 23 28 24 16 17 17 16 16 12 9 10 12 16 18 16 14 11 6 3 11 25 27 22 16 13 15 12 26 60 76 70 72 80 79 85 93 93 98 95 91 93 94 96 90 89 96 97 92 79 77 76 59 56 60 57 59 58 57 57 56 56 56 57
13 17 17 16 16 19 20 21 21 21 22 22 23 24 25 26 25 22 23 25 28 30 28 29 31 30 28 22 16 17 15 14 16 15 13 14 17 18 19 19 17 16 13 9 13 19 20 15 11 14 15 17 44 76 79 72 76 79 80 90 95 95 99 94 90 94 95 94 88 91 96 95 92 80 76 76 62 56 58 57 58 57 57 57 56 56 56 56
8 14 16 14 15 18 20 20 21 22 22 22 23 24 24 25 25 25 24 24 28 30 29 30 32 32 30 21 16 16 15 14 16 19 19 18 19 19 19 20 19 18 16 14 15 15 15 14 13 16 16 25 57 85 84 77 80 80 84 95 98 99 100 94 91 91 93 93 89 91 95 94 91 79 74 76 66 57 56 57 56 56 56 56 56 55 55 55
5 10 14 13 14 17 19 20 21 22 22 23 24 24 23 22 24 28 26 25 29 29 30 32 32 31 27 20 17 16 16 16 16 17 17 18 20 18 17 18 18 17 15 16 15 15 16 16 18 20 19 23 42 76 92 88 88 88 89 96 97 96 95 94 95 90 91 95 90 91 92 91 90 80 75 78 70 58 55 57 55 55 55 54 54 53 53 53
5 6 12 13 13 16 18 20 21 21 22 23 23 23 23 21 23 27 25 25 28 28 31 34 32 30 22 16 18 16 15 16 13 14 15 16 17 16 16 16 16 16 15 16 15 16 18 17 20 24 25 21 25 59 85 81 85 90 91 96 97 95 93 93 96 91 91 96 93 92 90 88 88 84 81 81 74 60 54 55 54 53 53 52 52 51 51 51
6 5 9 11 12 15 18 19 20 21 22 22 22 22 23 22 21 23 23 24 26 26 29 29 27 28 22 17 18 16 15 14 11 12 14 14 15 15 16 15 15 15 14 16 17 16 18 18 22 26 28 25 21 37 50 45 61 79 81 87 94 97 96 93 95 91 87 93 93 90 90 89 88 88 87 81 74 64 53 51 53 51 50 50 49 48 47 48
8 6 6 10 12 14 18 19 20 21 22 22 22 22 22 24 26 26 24 22 22 22 22 22 22 24 22 20 19 16 15 13 12 14 14 13 14 14 15 14 13 13 14 18 18 15 17 21 26 29 29 27 21 22 25 20 34 62 74 80 87 91 93 94 96 91 83 89 94 87 86 87 87 92 90 77 74 74 60 47 49 50 47 47 47 46 45 46
8 7 5 9 11 13 17 19 20 20 22 22 21 23 24 26 30 30 27 21 17 19 21 21 20 20 18 17 17 17 16 12 12 15 15 14 14 14 14 14 13 15 16 16 16 14 18 24 25 25 24 24 23 19 20 15 19 51 77 82 86 88 93 97 97 93 87 92 97 88 86 90 91 95 91 81 83 90 77 57 49 47 45 46 45 44 44 45
7 7 6 7 10 13 16 18 18 20 23 22 20 25 27 27 28 28 28 26 19 17 20 19 18 17 15 15 16 17 16 11 11 14 14 14 14 14 14 14 15 17 16 13 15 18 21 24 22 20 18 19 21 18 20 16 15 49 81 85 88 92 94 97 96 94 92 95 98 91 89 94 94 93 92 89 87 88 84 70 58 48 45 46 45 43 43 44
6 8 6 6 9 11 15 17 17 21 23 20 20 25 28 27 26 26 28 29 25 20 19 18 15 12 13 14 15 16 13 11 13 13 15 15 14 14 15 15 16 17 15 13 15 18 19 21 18 17 16 15 17 16 18 15 19 57 86 83 87 92 89 94 97 95 92 92 95 93 94 96 94 92 91 89 85 81 79 75 67 54 45 45 45 42 42 42
7 7 6 6 8 10 14 16 18 22 20 19 21 23 26 26 25 27 26 28 30 24 17 16 14 11 13 13 12 13 11 11 13 13 15 16 14 15 15 15 18 19 18 16 14 15 15 15 12 13 14 15 15 14 16 15 21 56 78 71 82 92 85 88 94 92 91 91 91 92 98 98 93 94 92 88 87 85 81 77 74 63 49 45 46 43 42 41
8 6 7 6 6 9 12 14 20 21 18 20 23 22 24 24 23 25 27 35 41 32 18 13 13 11 11 12 11 11 11 11 13 13 16 17 14 15 15 15 18 21 22 19 15 14 13 11 9 10 11 13 14 12 15 16 19 48 66 58 68 82 84 89 92 90 95 98 90 87 97 98 92 95 95 91 92 90 85 81 77 69 56 49 48 46 43 42
10 6 7 5 6 9 10 14 19 17 17 22 22 22 21 21 23 23 32 48 45 29 16 12 12 10 10 12 11 11 15 16 14 15 17 16 15 13 15 17 17 18 21 19 18 16 12 10 9 10 10 11 13 12 12 12 18 46 60 53 61 76 86 93 90 90 97 98 87 81 92 99 96 95 92 90 92 90 89 88 81 73 65 56 51 47 45 45
11 6 6 6 6 7 9 13 15 15 19 20 19 21 17 18 22 20 35 47 31 15 13 11 10 9 10 11 10 13 19 19 14 16 17 16 15 12 15 21 18 16 16 17 23 21 14 13 11 10 10 9 11 11 11 10 18 38 49 55 69 79 87 90 87 90 93 91 90 87 89 97 98 92 87 89 92 89 90 91 86 78 71 61 53 48 46 46
12 5 6 7 5 7 9 10 13 17 20 19 18 17 14 19 22 24 41 39 16 9 11 9 8 8 9 11 11 12 14 16 15 16 16 15 14 12 15 20 18 18 17 18 24 22 17 17 16 12 10 10 12 9 10 11 12 24 41 59 71 76 83 85 83 88 88 90 99 96 88 93 98 93 89 92 94 92 89 87 87 83 75 66 57 50 47 46
11 5 6 7 5 7 8 8 13 16 19 19 16 14 16 19 21 35 54 41 14 10 10 8 9 8 8 10 11 11 10 13 15 14 14 15 14 13 15 17 16 17 16 17 21 19 16 16 15 12 9 10 10 8 10 8 10 29 50 62 65 70 76 77 80 87 86 91 98 96 89 90 96 97 97 99 97 92 84 79 81 80 74 67 58 52 49 46
8 5 6 7 7 6 7 8 11 15 19 17 14 16 18 23 38 54 55 36 17 11 9 8 8 8 9 11 11 11 12 12 13 13 13 13 12 12 14 13 13 17 21 22 22 19 16 14 15 14 10 9 7 9 10 6 18 46 63 62 62 71 75 78 89 90 86 89 87 86 88 86 89 95 96 94 87 81 76 71 75 78 74 67 56 51 50 48
7 6 6 7 7 6 7 8 11 17 17 14 15 19 19 31 61 68 41 19 15 11 8 8 9 9 10 12 12 11 13 14 12 13 15 16 17 17 16 17 18 24 30 29 24 21 18 16 18 16 12 11 10 12 13 13 32 56 65 64 70 82 86 90 96 90 91 94 81 78 85 88 91 90 87 82 69 66 69 67 70 78 77 69 58 50 51 52
7 7 7 8 7 6 7 8 15 18 13 16 19 21 31 41 50 54 35 17 13 10 8 9 9 10 10 13 14 12 15 15 12 14 16 20 25 24 22 23 25 28 33 32 24 22 20 17 18 15 12 14 14 16 19 27 46 60 63 67 78 92 95 95 95 92 93 86 71 75 84 90 93 78 69 72 65 61 64 62 64 71 74 71 61 51 51 56
7 8 8 8 7 7 7 8 15 15 13 22 20 24 54 56 37 39 35 17 10 8 8 9 10 12 13 14 14 14 17 16 14 16 17 20 28 31 27 24 23 23 29 31 25 22 24 23 21 16 14 15 14 16 21 34 52 60 60 66 79 92 97 95 90 85 84 74 66 74 81 87 84 64 55 61 60 58 60 59 59 62 67 69 63 54 52 58
7 9 8 7 8 7 7 9 12 16 19 22 24 35 54 48 36 39 27 11 11 10 7 9 11 13 15 15 15 16 19 17 15 19 23 28 33 34 30 24 21 20 23 30 29 24 27 31 26 17 16 16 16 17 19 31 46 49 48 53 65 75 82 88 84 76 77 78 76 74 78 87 78 59 56 56 53 56 58 59 58 56 61 66 64 59 56 61
8 9 7 7 8 5 8 11 13 21 22 23 41 55 50 42 43 36 16 9 13 8 7 11 13 16 16 17 15 14 18 18 18 25 29 30 31 32 31 24 20 20 21 28 31 25 28 33 24 16 16 16 18 18 15 23 32 31 33 44 55 58 58 63 64 60 70 87 93 82 78 86 74 60 63 63 57 58 58 60 59 56 61 66 66 63 59 62
8 9 8 8 7 6 12 15 20 25 22 31 55 60 52 49 43 26 13 12 9 6 13 16 15 17 18 19 18 15 16 17 21 30 32 27 28 30 28 23 20 19 18 23 27 26 30 32 23 19 20 17 19 19 15 19 23 24 29 38 47 43 36 40 41 43 61 82 88 80 77 81 71 64 71 72 66 62 59 61 60 56 61 67 67 64 60 61
8 7 9 10 7 11 17 20 25 24 21 39 55 51 50 45 30 22 20 13 6 10 18 18 14 16 18 20 20 17 17 19 21 28 30 28 28 27 22 19 17 16 16 18 21 23 26 28 26 24 22 19 18 17 16 17 19 23 28 28 31 29 28 36 35 34 47 63 72 76 80 82 76 73 79 78 72 68 65 62 60 58 60 65 67 64 62 61
8 7 12 14 10 13 21 22 25 23 28 49 59 52 50 39 23 23 22 10 7 13 19 18 13 14 17 19 19 17 19 22 22 27 32 29 27 24 19 17 15 14 15 16 20 24 23 28 33 30 26 23 20 20 24 23 18 19 23 24 25 27 33 36 33 31 35 48 71 81 79 80 78 78 82 82 79 74 70 67 63 61 60 62 65 63 63 62
9 12 18 20 14 15 21 22 23 25 31 48 60 52 42 34 24 21 19 13 10 11 14 14 13 15 17 18 18 16 19 21 21 28 33 28 26 23 17 17 16 13 14 15 20 27 29 34 39 34 29 28 25 26 33 34 26 20 25 30 25 23 28 27 27 32 34 49 75 80 75 73 71 74 79 79 81 78 72 71 68 63 61 60 62 63 64 64
10 16 21 23 20 20 23 24 25 29 32 42 55 48 32 26 22 17 16 14 9 9 11 11 12 15 16 18 18 15 19 22 22 27 29 24 23 22 16 16 15 13 17 18 19 27 36 39 40 38 36 37 37 34 34 37 33 29 35 42 39 31 26 21 22 28 36 59 80 78 77 77 70 78 83 78 80 80 72 73 71 66 63 61 60 62 64 64
11 17 20 21 21 22 25 26 28 32 37 41 44 37 26 22 22 18 16 13 8 7 8 9 12 14 16 19 18 16 20 22 22 27 26 20 20 21 16 14 15 14 19 23 20 23 32 36 38 43 44 46 46 37 32 34 32 33 41 47 46 39 28 23 27 30 31 51 76 79 78 78 78 88 92 85 83 80 73 73 73 69 65 63 62 61 62 65
11 17 18 16 18 21 24 30 33 31 33 33 29 25 22 22 23 19 12 9 8 6 7 10 12 14 16 17 16 19 25 24 21 22 21 16 18 20 15 13 14 14 18 23 20 20 31 42 46 49 49 48 45 40 37 34 30 33 42 50 50 45 42 33 29 33 26 32 63 74 62 66 82 93 95 92 89 81 74 73 73 73 69 65 65 63 62 65
13 14 14 14 17 19 22 32 37 32 30 26 20 19 18 18 21 19 12 9 8 8 7 8 11 13 13 14 15 19 24 23 20 20 19 18 17 16 15 14 13 15 19 20 18 20 32 45 48 51 63 62 47 40 38 33 37 42 45 54 56 55 59 43 28 40 37 34 60 64 49 65 88 93 93 93 93 89 83 78 73 73 73 69 67 67 66 67
21 18 15 17 22 21 21 30 35 37 40 30 19 19 18 16 17 16 12 9 8 9 8 8 11 10 8 12 17 19 24 24 20 21 22 21 17 14 15 15 13 17 19 17 19 18 22 43 58 64 80 84 66 55 47 38 46 52 49 57 60 62 68 48 34 49 42 39 60 54 50 79 91 86 91 92 94 99 97 89 78 72 74 72 70 71 69 68
31 23 16 19 23 23 24 28 29 34 37 30 27 27 20 14 13 12 10 9 8 8 9 8 8 7 9 15 19 22 25 24 24 25 24 23 21 17 15 14 14 19 21 22 25 17 16 47 77 80 85 93 89 80 65 51 54 55 53 59 64 71 74 52 45 59 50 52 73 63 61 88 93 87 93 93 95 101 100 97 88 81 80 77 75 75 71 71
40 31 30 32 29 27 31 33 35 40 39 38 43 37 23 17 13 8 8 8 8 8 7 8 8 7 11 17 21 24 23 23 28 30 27 26 26 21 15 15 17 18 20 22 22 26 38 57 78 87 80 76 86 88 68 56 60 62 62 68 72 77 79 68 71 85 75 68 79 80 83 95 98 97 97 94 97 100 100 100 98 94 92 88 87 86 81 84
50 46 51 52 44 42 43 41 45 54 50 45 46 36 26 26 18 9 9 7 8 9 7 8 10 10 14 18 22 24 26 31 33 29 27 28 30 26 18 16 17 15 18 16 11 31 57 55 56 71 65 51 65 74 59 52 61 67 70 75 79 82 85 85 89 93 81 63 66 87 100 99 98 101 100 98 99 99 100 101 99 100 100 97 96 95 94 96
61 58 55 54 56 61 59 49 50 58 51 44 47 38 28 27 19 10 10 10 8 10 11 13 14 14 16 20 20 21 29 36 33 30 31 29 32 33 26 22 18 14 17 17 15 35 57 49 40 48 50 49 56 58 54 57 64 71 78 81 83 87 91 95 94 92 87 76 78 94 102 99 99 100 98 99 99 99 101 100 100 100 99 99 98 95 94 92
62 64 57 52 57 58 54 49 51 56 51 48 53 44 30 29 25 13 11 13 13 14 15 15 15 15 19 29 33 30 35 36 28 30 35 30 30 34 32 28 21 16 19 20 21 33 46 51 51 49 48 54 54 51 58 65 66 70 77 81 84 86 90 95 94 90 87 85 88 93 96 99 99 96 96 99 99 99 99 98 99 99 98 99 100 98 95 90
52 63 62 59 61 56 50 51 54 55 53 49 50 45 37 36 35 25 18 15 14 16 15 14 17 19 22 34 38 31 37 42 30 27 32 29 29 33 33 29 24 22 25 25 24 26 29 42 63 67 59 57 55 55 60 63 64 68 72 76 83 85 87 94 95 92 90 87 86 89 95 98 93 90 95 97 96 97 98 98 99 98 98 97 97 99 99 96
35 47 58 67 72 65 59 58 55 54 55 54 53 52 46 40 37 35 26 15 12 16 15 13 19 23 24 31 30 22 28 35 25 18 23 21 18 22 25 24 24 25 27 27 26 29 33 42 59 73 68 54 51 56 61 61 63 71 74 73 83 91 91 93 95 94 97 96 88 88 97 98 93 93 96 96 96 99 99 99 100 99 98 96 93 96 99 99
30 39 58 72 73 68 67 66 60 55 55 55 53 51 47 41 38 38 30 18 12 12 12 12 18 27 29 28 25 17 15 18 14 10 13 12 9 11 14 15 18 21 27 31 24 32 54 53 47 60 61 49 50 57 61 64 64 75 80 69 74 92 92 91 95 93 95 99 94 93 97 96 95 96 98 98 99 100 100 100 101 100 99 96 94 97 100 100
Wind_Speed
15 16 17 18 18 18 17 16 14 12 11 11 10 10 9 9 8 8 7 7 6 6 6 6 7 8 8 8 7 7 6 7 9 9 8 6 7 10 9 11 13 13 11 9 10 13 16 16 16 14 12 11 9 9 8 9 9 4 2 1 1 2 2 3 5 4 4 3 5 7 9 8 6 8 11 12 14 19 14 10 12 6 12 22 20 28 30 26
14 15 16 17 17 18 18 17 16 15 14 13 12 12 11 10 10 9 9 9 8 8 8 8 8 9 9 9 9 7 6 6 8 8 5 5 7 8 9 11 12 13 11 10 10 13 16 16 16 14 13 10 6 8 7 8 10 4 2 1 2 3 3 4 7 7 6 6 7 7 10 11 9 11 11 8 10 14 13 12 16 17 18 20 24 30 28 28
13 14 15 16 16 17 17 17 16 16 15 14 13 13 12 11 10 10 10 10 10 10 10 10 10 10 11 10 9 8 6 3 3 2 0 1 4 5 8 10 11 11 10 9 10 12 15 15 14 13 11 7 5 8 8 8 9 5 2 1 4 4 3 4 10 11 9 12 11 10 12 11 12 13 9 6 10 12 10 13 18 22 24 25 29 30 30 30
12 13 14 14 15 15 15 15 15 15 14 14 13 12 11 11 10 10 10 10 10 10 11 12 12 12 12 11 10 9 5 2 3 5 6 5 3 1 5 8 10 11 10 10 11 13 14 13 12 11 8 5 6 8 8 10 9 5 5 3 3 3 2 4 12 13 11 15 15 13 12 10 12 13 9 9 9 6 11 19 23 27 30 31 31 31 31 29
11 11 12 13 14 14 14 14 14 14 14 13 13 12 11 10 10 9 10 10 11 11 11 12 13 13 14 13 11 7 4 3 4 6 6 6 6 4 2 5 9 11 11 12 12 13 15 13 11 8 5 3 5 5 7 15 13 4 6 7 4 2 2 2 9 13 12 17 17 12 10 12 14 12 10 10 7 8 17 25 28 32 35 34 34 33 31 29
10 10 11 12 12 12 13 13 13 13 13 14 13 13 12 11 11 11 11 12 12 12 12 13 13 14 13 12 10 4 3 2 3 4 5 5 6 4 3 2 6 10 12 13 13 13 15 14 11 7 4 3 6 7 9 19 17 3 4 6 6 3 1 3 5 12 12 13 12 9 10 11 10 7 10 9 7 12 21 28 31 33 34 35 35 33 32 30
10 9 10 11 11 11 12 12 12 13 13 14 13 14 14 14 13 13 13 13 13 13 13 12 13 13 12 11 8 4 3 3 5 5 5 5 7 6 3 2 4 8 12 14 14 14 15 14 12 9 4 3 8 10 11 18 19 7 2 1 4 5 5 5 8 12 14 11 4 6 10 10 4 0 3 8 12 15 23 30 31 31 32 35 35 33 32 29
11 9 9 9 10 11 11 11 11 12 13 13 13 14 14 14 14 15 14 13 13 13 12 12 11 11 10 10 8 4 4 4 4 5 5 5 8 8 6 4 3 7 11 14 14 14 15 14 13 10 3 4 6 7 8 10 11 8 1 2 5 9 8 7 11 12 14 14 8 8 9 9 4 1 4 11 15 21 26 32 32 30 31 33 34 32 31 27
11 10 9 9 10 10 10 10 10 11 13 13 13 14 14 15 14 15 15 14 13 13 13 12 11 10 9 8 7 4 4 4 3 5 6 6 8 10 9 6 5 7 10 13 14 14 14 14 13 9 3 6 7 6 10 9 4 8 5 6 5 9 8 6 7 9 12 12 12 13 7 5 7 6 3 13 18 30 31 34 34 32 31 31 32 30 28 26
11 10 9 9 9 9 9 9 10 11 12 13 13 13 14 14 14 15 15 14 13 14 14 12 10 9 8 7 5 2 4 3 3 4 6 6 6 11 12 7 6 7 9 12 15 16 14 12 8 5 4 7 8 7 8 9 6 12 13 12 10 11 9 6 7 8 10 8 9 15 7 3 7 6 2 11 24 36 34 34 35 33 30 29 29 28 26 25
10 10 10 9 9 9 9 10 11 11 12 13 14 14 14 15 15 14 14 13 13 14 14 13 11 9 9 8 4 1 2 1 3 3 4 4 6 10 11 7 6 7 9 11 15 18 15 10 3 2 3 6 7 5 3 8 15 20 18 13 10 12 11 9 9 7 7 5 7 15 9 2 3 3 2 14 29 36 36 34 33 33 29 27 28 27 26 24
10 10 9 9 9 9 9 10 11 11 11 13 15 15 15 15 15 14 13 12 12 13 14 13 12 10 11 9 2 1 1 3 4 5 5 4 4 7 9 6 3 4 8 10 14 18 14 8 4 6 5 7 6 2 5 13 20 17 13 9 5 7 8 8 6 4 4 4 9 15 9 2 1 2 2 14 30 33 35 34 31 31 28 27 29 28 27 25
10 9 9 9 9 9 9 10 11 11 11 13 15 16 16 16 15 12 11 11 11 12 14 14 13 13 12 6 1 2 3 5 6 8 7 4 3 4 6 5 2 2 6 10 13 16 12 7 7 11 11 10 6 2 8 14 15 9 7 5 3 3 3 5 4 2 2 4 7 7 5 2 2 1 5 8 29 33 31 32 29 29 28 28 29 28 28 26
10 10 10 9 8 8 9 10 10 10 11 13 15 16 16 16 12 10 9 10 11 12 14 16 14 14 11 3 1 1 2 3 4 5 3 3 2 2 3 3 2 2 3 8 11 13 11 7 10 13 14 12 5 8 11 9 6 4 4 2 2 1 1 2 1 4 0 3 2 3 4 3 1 4 3 4 25 32 27 28 28 28 29 29 29 29 28 27
10 10 10 9 8 8 9 9 9 10 11 13 15 16 17 14 11 10 9 10 13 13 15 16 14 13 11 4 1 0 1 2 4 4 2 2 2 3 3 4 3 2 1 4 8 9 9 9 11 11 11 6 8 9 5 2 2 2 3 1 2 2 1 1 3 4 1 2 1 2 3 3 1 7 7 4 20 30 27 26 28 28 29 29 29 29 28 27
9 9 9 9 8 7 8 8 9 9 11 13 15 16 15 14 11 10 9 11 14 15 15 13 11 10 8 4 1 1 2 3 4 4 2 2 3 4 4 6 6 3 3 2 4 6 7 10 10 9 7 3 8 5 3 3 1 0 2 2 1 2 2 2 2 4 1 3 2 1 2 2 3 9 10 4 16 26 26 26 28 29 28 28 28 28 27 26
10 9 9 8 7 7 8 7 8 9 11 14 14 14 14 14 11 8 8 13 15 17 15 8 8 8 4 4 4 1 3 4 2 3 1 3 3 4 5 8 6 3 4 4 5 9 9 7 5 4 3 3 4 4 4 1 2 1 2 2 2 3 4 3 1 3 4 1 1 3 3 2 4 9 10 5 11 21 23 25 28 29 28 28 27 27 27 26
11 9 8 8 6 7 7 6 7 8 10 13 14 13 12 13 10 5 10 17 16 14 10 4 7 6 3 7 8 6 6 3 3 3 1 1 3 5 5 6 5 4 3 4 5 7 6 3 2 1 2 2 3 4 4 3 4 4 2 2 2 3 4 4 2 4 6 2 2 6 5 2 2 8 10 5 10 19 20 24 29 29 28 27 27 27 27 28
12 9 8 7 6 6 6 5 6 7 10 12 15 13 11 15 10 4 14 21 13 7 4 7 8 2 5 12 13 8 6 3 2 2 1 1 2 4 2 3 3 3 0 1 2 2 1 2 2 1 0 1 4 5 4 5 6 7 5 4 4 3 2 3 1 5 8 4 4 8 8 5 5 5 7 7 8 14 18 21 24 26 27 27 27 27 28 30
13 10 7 6 6 7 5 5 5 7 10 13 17 14 11 16 9 5 21 23 12 10 12 15 13 10 13 16 12 7 5 3 1 2 2 2 3 3 2 1 1 1 1 1 2 3 2 1 1 4 5 6 6 4 5 4 2 4 4 2 4 4 1 1 1 4 6 3 4 7 10 10 7 3 5 7 6 5 12 18 21 22 25 28 28 28 29 32
15 11 7 6 6 7 6 5 6 7 9 12 18 17 13 15 8 7 20 19 13 16 17 16 14 13 14 12 7 6 6 4 0 1 2 3 2 2 2 0 3 1 3 1 2 3 3 2 5 7 8 9 5 5 5 5 1 2 4 3 3 3 1 1 1 3 3 1 2 4 8 9 4 2 3 6 5 2 4 12 19 22 23 27 30 30 31 31
15 11 8 6 6 7 8 7 7 7 8 11 15 16 15 16 10 9 12 12 14 14 13 13 11 11 10 8 6 6 7 5 1 2 3 3 3 2 0 2 3 1 3 2 2 4 3 4 9 10 7 4 2 4 5 5 2 2 3 4 3 2 3 2 2 2 0 1 2 3 6 5 1 1 2 5 5 2 3 5 12 19 21 24 29 32 33 30
15 12 9 6 6 8 9 8 7 6 8 9 11 12 13 13 11 10 8 9 13 12 9 7 7 9 6 6 6 7 9 5 2 4 5 4 4 3 3 2 1 1 2 2 3 1 3 6 9 8 3 1 3 3 5 4 2 3 4 4 3 5 5 1 3 5 1 1 2 3 2 1 3 4 4 4 6 6 5 3 6 14 20 24 27 32 35 31
16 12 10 6 6 8 9 8 7 6 8 8 7 8 9 10 10 12 9 5 7 8 7 5 5 7 4 3 3 6 8 5 4 4 5 7 5 4 4 4 2 0 3 4 6 4 6 10 7 3 2 4 4 3 3 3 3 3 6 5 5 8 6 2 6 7 3 3 4 5 2 2 2 5 7 5 5 7 8 6 5 11 18 22 25 29 34 34
16 13 10 7 6 7 9 8 6 6 8 6 5 6 9 11 11 13 9 2 3 6 5 4 2 3 3 2 2 4 4 5 5 4 6 10 9 4 2 3 3 2 5 5 4 3 9 14 8 4 5 6 5 5 4 5 3 3 7 10 10 10 7 8 11 8 3 2 4 6 2 3 4 7 9 5 5 6 9 9 9 11 16 19 22 27 30 32
17 13 11 8 6 7 7 6 5 7 8 5 5 7 9 11 12 12 7 3 3 5 3 2 2 2 4 3 3 1 3 3 3 5 9 9 8 4 1 1 1 3 6 4 2 2 6 8 5 6 8 6 6 6 5 7 5 3 6 8 8 10 10 14 15 9 4 4 5 8 5 2 2 7 11 8 7 8 8 9 12 13 16 18 21 27 28 28
17 14 10 8 7 6 7 6 6 8 8 6 7 9 10 11 11 10 4 4 3 4 2 2 2 2 3 3 4 3 1 3 2 6 11 8 7 6 2 2 2 4 4 2 2 3 4 5 4 6 7 6 5 5 6 9 7 4 5 9 12 12 13 16 14 6 2 2 4 7 4 1 3 7 9 9 9 10 9 9 12 15 17 19 21 26 28 27
17 14 10 9 8 6 7 7 7 7 7 8 10 10 11 11 9 5 2 4 3 3 2 3 3 4 4 2 4 4 2 3 0 4 10 9 7 5 3 4 4 5 4 3 2 6 3 4 7 5 5 4 5 7 8 10 7 5 2 9 10 10 10 10 7 2 1 3 3 7 4 1 4 3 5 8 9 12 14 13 13 16 19 21 22 25 27 27
17 14 9 8 8 7 8 8 7 6 7 10 11 11 14 12 5 1 4 2 2 2 2 2 3 5 4 2 2 5 4 3 0 1 7 10 9 6 3 4 5 5 4 4 4 6 4 8 8 4 4 5 7 8 8 10 7 2 12 14 11 10 8 5 3 3 2 2 3 9 8 3 3 2 5 7 8 13 15 14 14 19 23 24 25 26 27 26
16 13 9 8 8 8 8 8 7 6 8 11 12 14 14 7 1 4 3 1 2 3 2 2 3 2 4 2 3 3 3 3 3 1 2 5 7 7 6 6 3 1 3 1 3 7 9 13 9 4 5 7 7 7 8 12 9 11 16 12 11 9 6 5 4 3 2 2 4 10 13 5 2 3 7 8 13 17 16 13 14 19 23 26 28 28 29 27
15 13 9 7 7 7 7 6 5 6 8 11 13 14 10 2 3 5 1 2 2 3 3 2 4 2 3 4 0 2 2 2 3 0 1 1 1 2 1 2 2 3 4 5 4 6 7 7 4 4 7 6 4 3 2 8 11 11 7 6 7 4 4 4 3 2 1 5 4 8 12 5 2 4 7 12 17 16 15 15 15 17 22 28 31 32 30 28
13 12 9 7 7 7 6 4 5 5 8 10 14 12 4 2 3 2 1 2 2 2 3 2 2 2 1 3 1 1 1 1 3 1 1 1 2 1 1 1 1 3 4 4 4 5 6 4 4 6 4 1 2 3 3 2 7 8 5 6 6 2 3 2 1 1 3 5 3 7 11 4 5 7 8 15 16 12 14 19 20 23 27 31 34 35 33 29
12 11 9 8 7 7 6 5 5 5 7 9 12 8 3 4 1 2 2 2 1 2 2 2 3 4 3 3 2 2 3 2 3 2 0 1 3 2 3 2 4 2 2 2 3 5 5 6 7 7 4 7 7 2 1 1 4 7 7 6 4 3 2 0 2 1 3 5 1 9 10 2 5 6 6 13 17 17 21 25 29 32 34 34 36 38 36 31
11 10 9 8 7 6 5 6 5 3 5 8 7 4 5 3 2 3 2 3 3 2 2 2 4 5 4 2 0 0 3 2 2 3 3 3 4 2 4 3 2 3 1 0 1 1 1 4 4 4 4 8 8 2 3 5 5 2 3 5 5 5 3 2 3 2 2 2 2 9 7 3 3 4 5 8 14 20 24 26 30 33 34 34 34 35 35 32
10 9 9 7 4 4 5 6 4 0 4 7 4 4 3 1 3 2 3 4 1 3 4 3 3 5 4 3 1 1 2 0 2 4 4 3 2 1 2 3 3 3 3 2 2 1 2 4 5 1 4 6 7 6 2 5 3 2 1 3 3 5 5 3 3 3 3 2 2 4 3 4 4 4 4 3 7 16 21 23 25 28 30 31 31 33 35 34
9 9 7 4 2 5 6 5 3 2 4 5 5 3 2 4 3 2 3 2 1 1 3 5 5 4 4 4 3 3 1 1 2 3 3 3 1 2 2 2 3 2 2 1 2 1 2 4 6 5 5 7 10 7 2 6 2 1 1 3 4 4 5 2 1 1 3 1 2 3 4 4 2 3 3 2 2 9 15 18 22 25 28 30 31 34 36 36
8 7 5 3 5 8 7 5 4 2 4 5 4 1 3 3 4 4 2 4 3 1 4 4 2 2 2 2 3 5 2 3 3 3 2 3 2 3 2 3 3 2 1 2 1 1 0 4 5 6 5 10 17 9 4 7 3 3 3 4 1 2 2 2 1 1 1 1 3 3 4 4 2 2 3 4 2 5 10 13 18 22 27 29 31 35 36 37
8 7 4 1 7 10 8 5 3 1 3 5 2 2 2 2 5 5 5 7 4 2 5 2 1 0 1 1 2 5 2 2 3 2 0 2 2 2 2 3 3 5 4 2 2 1 1 3 6 4 4 9 15 9 4 10 11 1 4 3 3 1 1 1 2 2 2 2 2 3 3 3 3 3 1 2 2 4 7 10 13 17 24 28 31 34 36 37
10 6 4 2 7 10 7 6 5 1 3 4 0 2 2 3 7 10 12 9 3 3 3 2 0 1 1 2 1 2 1 1 1 1 1 0 1 1 2 2 3 7 6 5 3 1 2 2 4 5 7 7 8 7 5 9 11 6 2 2 3 2 3 1 2 3 2 2 2 2 3 3 5 3 2 6 6 5 7 9 10 14 21 27 30 33 36 37
10 5 4 3 5 8 6 7 5 2 3 1 2 3 2 3 7 13 16 12 3 3 1 2 1 1 1 0 1 0 1 2 2 1 1 1 1 2 3 2 2 5 5 7 5 1 2 3 2 5 8 7 3 4 5 5 6 6 5 4 3 3 1 1 2 1 3 3 2 1 1 5 4 2 1 3 4 6 8 8 8 13 21 26 29 33 35 37
7 3 3 3 1 6 7 7 4 2 2 2 2 3 3 3 6 11 18 15 5 3 2 3 3 2 2 0 1 1 1 2 2 1 1 0 1 1 4 4 2 3 3 6 5 2 1 1 1 3 5 4 3 6 5 6 4 2 3 3 1 3 0 2 2 3 1 3 3 4 3 5 4 4 5 4 1 2 6 8 8 13 20 24 27 31 34 36
5 0 1 3 3 5 5 4 2 0 2 3 3 4 5 4 5 7 13 12 4 2 2 2 2 2 2 2 0 1 2 2 2 1 0 1 2 2 4 5 3 2 3 2 2 1 2 2 2 2 2 2 6 9 8 8 5 0 3 4 2 2 1 3 2 3 1 1 0 2 2 4 5 6 6 6 5 5 3 5 7 10 17 21 24 28 31 33
8 4 2 2 2 4 4 1 3 2 2 4 5 5 6 5 4 5 6 6 3 1 1 2 2 1 1 1 1 1 2 2 1 0 0 2 1 3 3 6 5 4 4 2 2 2 2 3 2 2 2 2 5 7 6 6 5 2 3 6 4 3 3 3 4 2 1 1 1 1 1 3 5 7 7 9 11 13 11 3 4 7 12 17 20 24 26 27
12 8 3 3 3 5 5 2 3 3 3 5 5 6 9 8 8 8 6 5 3 2 2 1 2 1 1 1 3 2 2 3 0 1 1 1 1 3 5 8 7 5 2 0 1 2 2 1 2 3 4 5 5 5 5 6 6 2 3 7 7 8 8 2 1 1 2 0 1 3 2 4 4 7 9 11 11 12 15 10 1 7 10 14 17 19 22 24
10 6 3 3 3 5 4 2 1 1 3 4 4 5 6 7 9 9 7 5 4 4 3 1 2 3 1 3 4 2 2 4 1 2 1 0 2 3 5 8 7 6 4 1 1 1 1 1 3 4 3 1 1 2 3 3 4 3 5 9 9 12 11 3 1 2 2 1 1 3 2 3 4 8 10 10 9 9 14 15 8 2 6 10 13 16 21 23
6 2 4 5 2 2 2 4 6 3 1 3 4 4 3 5 7 6 4 3 3 3 4 2 1 2 3 5 4 3 4 3 2 2 1 1 2 3 6 7 6 7 8 5 3 2 3 2 2 5 6 6 6 5 5 3 1 3 6 9 10 11 10 3 3 2 1 1 3 2 2 1 6 10 9 8 8 8 9 14 14 11 7 5 8 12 15 18
4 1 3 4 4 3 3 6 9 6 2 2 2 3 5 7 6 3 2 2 2 3 4 4 2 3 3 3 4 2 3 4 3 2 1 2 3 4 7 5 4 7 7 6 5 3 4 3 1 5 6 8 10 8 4 0 2 3 5 8 10 10 10 7 4 2 2 1 3 4 3 4 5 8 8 6 6 6 7 11 12 12 12 8 7 9 8 9
3 2 2 2 2 1 1 6 11 7 3 3 2 1 5 8 6 4 2 1 1 2 4 3 4 2 5 5 5 2 1 3 3 1 0 2 3 4 7 5 3 5 5 4 5 4 5 1 2 3 4 6 8 7 5 6 4 3 5 7 8 9 10 8 4 3 2 4 2 4 7 7 6 8 8 6 5 6 9 12 10 8 8 6 5 8 9 11
3 3 3 3 2 3 4 8 10 6 3 4 2 1 4 7 8 6 3 1 2 2 5 3 4 3 4 6 6 4 3 2 1 2 1 1 2 2 3 4 3 5 5 3 3 3 4 1 2 3 5 4 3 3 5 8 5 4 6 6 6 7 7 7 6 5 5 6 4 5 8 8 7 8 8 8 10 11 12 14 13 9 5 4 5 6 11 18
3 2 4 5 4 6 7 7 5 3 3 3 1 2 4 6 8 9 6 1 3 1 4 7 5 2 3 6 6 4 6 7 5 2 3 1 2 0 1 2 2 5 5 3 2 2 3 1 2 4 5 1 2 1 4 7 7 5 4 5 6 6 5 7 7 6 5 4 2 4 6 6 6 9 11 11 14 14 14 14 13 10 6 3 3 4 7 13
3 4 5 5 3 3 3 3 3 2 2 2 1 3 5 4 6 10 8 4 5 6 6 10 9 4 4 6 6 3 7 10 8 6 7 4 1 3 3 2 2 2 4 1 1 3 3 1 2 4 5 1 2 2 3 4 6 5 3 6 7 6 4 4 6 5 4 3 2 4 4 2 4 9 10 11 14 15 14 13 11 8 6 4 2 2 4 6
4 3 4 2 2 3 2 2 3 2 1 3 3 4 4 7 10 9 4 5 3 8 15 15 10 5 4 4 4 4 6 8 5 3 5 4 3 4 4 4 5 4 1 0 1 1 3 3 1 3 4 2 4 4 3 2 3 1 2 4 2 2 2 1 3 6 4 2 1 1 0 2 1 4 6 8 11 11 13 15 12 7 5 4 3 1 2 3
Wind_Direction
35 35 35 35 35 36 39 41 44 47 50 51 49 50 49 48 46 43 41 36 29 17 5 350 341 335 332 329 324 314 292 274 270 265 253 230 216 223 206 188 192 193 187 180 181 178 177 179 178 179 182 187 204 221 221 227 219 183 90 81 119 191 194 195 181 162 140 142 160 171 168 147 129 131 122 126 139 140 139 136 143 139 145 156 156 154 156 160
35 35 34 36 38 39 41 44 47 49 52 52 50 49 47 47 46 45 41 36 30 21 11 357 349 341 336 334 331 327 307 275 262 261 254 230 218 221 211 196 196 196 186 181 184 181 180 179 178 180 184 191 212 224 213 199 199 187 102 124 234 204 192 195 174 157 147 157 156 163 171 151 137 146 138 129 142 137 126 129 130 123 134 148 151 154 160 165
34 34 34 36 38 40 42 44 47 49 51 51 50 47 45 45 45 46 42 34 28 20 12 2 356 348 341 338 338 337 325 287 237 226 75 222 215 215 209 204 204 198 185 180 188 188 183 177 176 179 183 204 228 215 200 185 192 198 147 194 247 216 203 206 180 175 171 162 151 155 165 148 147 155 149 140 139 140 141 144 138 133 140 149 154 159 163 167
33 32 34 35 36 38 40 41 43 43 45 45 45 43 40 38 35 34 26 19 14 8 2 356 354 350 344 343 345 344 347 55 129 112 80 63 67 146 191 205 212 205 195 186 189 189 185 176 171 172 175 224 244 215 198 190 188 183 179 213 244 177 197 225 186 183 175 163 159 159 157 145 159 166 162 146 136 155 166 160 153 146 150 155 159 163 166 172
30 29 31 34 34 35 35 36 36 36 36 34 33 31 28 24 18 13 6 1 357 355 350 347 347 347 344 347 353 353 24 82 129 110 83 51 36 42 123 206 214 212 206 192 189 187 187 181 171 174 175 224 237 210 208 199 185 170 219 246 287 190 198 280 187 185 175 165 161 155 158 159 163 170 176 163 159 184 172 166 160 155 158 161 163 165 170 176
26 24 27 31 31 31 30 30 31 31 29 27 25 21 18 13 9 5 360 356 352 349 345 343 341 343 345 352 3 10 34 95 140 93 60 24 5 11 47 222 215 210 207 195 190 185 188 189 181 182 177 204 211 207 220 202 191 205 257 261 302 254 197 22 164 179 170 158 153 154 163 152 145 167 189 194 200 187 171 167 162 159 163 164 166 169 172 179
21 18 19 21 24 26 25 27 26 25 24 22 20 16 14 9 7 4 0 358 353 349 344 341 339 342 346 352 7 16 7 71 107 62 40 31 8 357 353 299 236 214 209 199 190 186 191 191 191 195 188 215 205 214 227 200 190 209 289 357 26 65 84 77 128 158 165 158 130 140 140 114 93 240 210 232 214 186 170 165 159 158 163 165 167 172 175 179
14 12 9 8 12 16 19 23 22 22 19 16 15 12 10 6 2 358 356 356 354 352 348 344 343 344 350 355 8 29 44 83 88 43 30 20 8 1 336 300 259 222 213 204 195 190 192 193 197 194 195 253 229 237 219 177 186 211 283 62 66 69 80 107 122 136 157 163 140 116 115 109 138 138 341 273 209 174 166 161 157 155 161 167 169 173 177 178
7 6 1 358 2 7 12 16 16 17 14 11 11 8 5 2 357 353 351 354 356 356 353 351 352 353 358 5 18 58 98 95 54 17 9 357 360 360 340 308 270 234 214 207 202 195 196 201 203 195 243 279 279 269 187 157 195 199 125 85 87 74 80 108 123 128 140 154 141 119 99 104 137 130 298 266 192 164 162 159 159 157 159 168 171 174 178 178
0 1 357 354 355 359 4 6 7 10 8 6 5 2 1 358 354 350 347 352 357 357 359 359 358 359 5 14 28 93 126 78 23 358 355 354 353 351 342 314 270 238 212 208 205 200 198 195 198 210 269 294 306 300 193 172 144 133 110 87 83 73 65 81 108 114 115 119 132 134 135 129 122 114 239 229 172 158 158 158 162 162 161 167 172 176 178 180
354 355 353 351 350 353 356 357 0 4 4 0 356 355 358 358 354 348 346 352 358 358 0 1 360 2 0 354 347 189 164 354 344 337 331 330 340 345 343 318 264 234 210 209 205 201 197 192 210 288 276 318 328 357 81 138 123 114 106 92 81 74 56 59 93 96 93 78 104 125 118 96 126 93 203 183 162 156 156 157 163 166 166 168 171 175 177 181
348 349 348 347 344 346 348 350 355 358 358 355 351 351 356 358 351 344 344 352 359 359 357 358 358 355 346 336 324 152 233 286 293 292 284 289 325 340 346 341 285 244 211 210 205 197 200 211 283 305 292 321 319 9 79 122 122 112 105 103 97 83 49 34 60 58 62 92 117 121 104 25 265 10 266 171 157 156 155 157 164 167 170 172 172 176 179 184
342 344 343 341 337 338 342 345 350 352 352 352 350 349 354 356 345 338 343 352 358 356 353 351 345 341 337 328 90 114 274 283 288 284 271 261 297 314 341 359 11 292 216 211 204 197 209 238 287 291 290 303 291 157 123 122 117 104 89 104 117 86 33 33 61 47 42 93 123 128 128 194 272 18 302 191 160 156 156 160 165 168 173 176 178 183 186 189
337 340 340 337 331 332 337 341 344 346 349 352 350 349 354 351 337 331 339 352 355 348 347 344 337 338 334 314 149 54 301 312 325 311 259 207 254 289 308 327 4 9 208 206 203 203 218 259 289 291 295 286 227 129 121 118 106 109 90 74 80 85 307 26 141 211 157 80 90 58 126 181 243 160 259 231 166 159 157 164 167 170 176 180 184 189 190 192
336 335 338 335 327 329 334 338 340 345 349 352 351 350 353 351 334 325 328 346 352 346 343 337 335 336 327 312 164 77 52 54 47 50 81 163 274 304 304 299 315 344 296 213 199 206 226 270 288 287 295 268 163 128 115 99 69 118 117 64 10 86 179 310 237 222 167 127 179 53 124 169 154 193 233 237 172 165 161 169 171 174 179 183 188 191 192 194
340 333 336 333 325 326 330 334 339 346 352 353 354 354 354 355 346 329 323 337 342 342 340 334 339 340 324 334 344 243 19 34 64 86 69 12 315 316 332 303 294 284 281 254 204 236 263 283 285 274 273 175 143 124 83 67 39 246 129 138 142 130 159 226 254 282 267 137 150 90 129 142 143 217 228 187 178 174 167 173 175 178 183 186 190 192 193 194
347 334 332 330 322 321 323 331 339 348 356 356 0 2 357 358 358 348 343 344 339 337 339 338 345 335 309 349 356 330 346 353 55 121 139 355 310 305 323 302 286 252 268 283 268 275 283 276 254 256 265 132 122 105 94 46 254 240 84 116 163 158 166 191 201 290 260 185 108 116 130 159 149 196 200 177 201 189 175 178 180 183 188 190 191 191 193 195
351 338 330 325 315 314 315 326 337 349 0 1 4 5 1 358 354 353 354 346 337 337 344 352 352 346 300 328 338 327 312 322 71 101 174 304 293 303 328 318 285 250 276 294 277 271 266 257 163 155 346 53 111 127 141 210 195 177 167 138 148 161 187 207 189 187 200 199 149 138 139 211 182 171 173 164 207 200 188 186 185 186 190 192 191 190 193 196
352 343 327 317 309 305 306 318 334 350 2 8 7 6 5 359 352 343 349 343 336 343 342 316 323 314 262 300 322 328 299 281 74 92 105 172 255 279 326 350 282 240 319 351 301 300 244 322 41 122 270 227 196 168 174 192 177 187 186 151 155 157 202 218 186 168 171 145 149 156 154 199 233 178 150 135 174 207 207 198 191 189 190 191 189 189 192 195
350 344 327 310 299 294 293 308 327 345 3 17 16 15 9 358 358 345 343 337 329 328 313 305 301 273 275 295 312 317 272 253 354 97 104 146 219 268 280 318 348 22 55 169 262 341 25 331 278 219 212 225 218 164 182 216 195 183 170 162 176 147 144 225 107 170 170 132 159 174 166 182 205 174 151 145 140 204 210 203 200 192 188 189 188 188 189 193
349 342 329 303 290 287 280 294 316 336 359 18 20 23 18 5 1 333 338 333 331 332 316 311 303 283 287 297 304 298 268 251 209 129 138 159 194 314 301 260 74 6 300 233 270 341 29 246 245 230 219 227 217 145 194 244 273 178 155 155 180 136 107 8 79 170 175 103 154 174 170 174 168 123 173 163 131 62 193 198 202 194 187 187 186 186 186 187
348 340 328 301 280 280 270 284 307 323 353 13 20 24 24 17 4 332 330 315 318 330 318 312 309 296 286 272 278 285 267 255 234 218 193 164 188 216 29 60 81 254 300 27 11 346 353 258 250 247 232 237 237 158 196 239 211 171 123 136 180 151 128 56 72 149 39 27 158 169 177 174 87 6 219 175 165 195 181 186 197 192 190 188 184 184 182 180
348 339 328 303 277 274 267 279 300 317 345 2 16 22 19 18 9 349 330 289 299 318 323 321 314 312 289 256 269 252 239 242 251 234 216 199 199 179 137 108 103 279 336 71 158 270 298 251 248 258 254 254 278 210 201 240 211 158 141 153 186 173 167 125 159 166 141 43 124 130 164 312 348 320 286 217 204 226 217 198 188 190 193 190 184 182 181 179
348 340 326 305 278 270 265 275 293 318 339 352 7 13 5 0 1 353 335 286 287 307 331 351 316 308 289 260 260 223 223 242 265 242 210 204 188 154 168 174 130 260 266 210 187 195 247 252 254 275 238 200 243 255 201 226 253 201 183 185 182 180 182 109 141 152 107 53 98 106 67 320 249 256 268 219 198 240 241 231 210 193 193 191 188 185 183 183
347 341 327 309 282 270 267 273 284 310 327 342 343 343 351 346 345 345 340 334 288 298 328 354 306 293 283 265 227 222 249 266 267 252 206 195 185 160 176 171 129 247 251 223 199 210 255 261 255 256 248 195 202 242 203 180 229 250 215 208 191 177 155 115 132 140 130 184 168 146 163 260 211 220 239 214 180 223 236 234 229 202 190 194 195 191 188 187
345 340 328 311 287 271 269 273 278 299 313 321 321 329 339 339 337 334 343 51 327 300 330 328 254 273 276 244 199 216 326 306 269 233 210 197 200 190 130 187 171 251 239 201 183 214 258 264 221 217 240 206 197 235 205 172 187 256 234 206 172 152 138 138 149 151 165 200 183 171 182 249 232 227 227 211 201 214 216 220 229 214 194 194 198 195 192 189
342 338 329 313 295 274 268 269 269 287 304 310 319 328 330 333 330 320 340 53 343 294 306 282 248 280 263 221 197 157 11 302 285 234 216 201 214 212 206 251 251 257 236 105 23 251 250 290 262 222 226 206 201 231 209 169 168 243 218 159 149 156 157 158 159 153 150 108 138 175 168 66 249 235 215 199 205 218 216 214 225 221 206 198 198 198 195 193
338 335 329 314 301 283 272 262 261 278 294 308 321 325 326 327 318 312 69 72 331 298 298 271 255 275 262 209 204 200 253 275 297 248 220 201 212 213 214 227 208 248 248 112 298 266 220 266 266 236 221 207 209 226 198 162 184 253 168 127 139 146 143 148 142 101 80 84 140 188 165 155 261 242 180 184 204 218 218 214 215 217 214 203 197 198 198 196
334 331 329 313 300 289 275 260 254 265 285 311 325 321 324 325 306 43 84 86 311 298 285 281 277 266 234 187 221 226 253 254 187 273 209 203 226 232 254 254 214 250 267 162 228 265 243 247 248 200 190 210 226 228 181 167 203 142 90 83 74 78 80 80 63 23 21 69 190 197 181 191 271 222 161 173 206 220 216 212 209 210 214 208 198 196 199 198
331 327 327 310 298 290 273 260 252 262 295 318 324 321 327 330 99 75 52 275 270 266 260 256 275 254 167 127 333 259 221 240 268 295 186 203 232 233 255 271 232 259 314 336 245 257 269 269 257 193 205 221 232 230 185 180 174 106 93 86 69 60 57 54 30 9 343 288 218 190 185 187 297 218 180 186 207 211 206 203 201 204 211 210 203 198 198 199
329 325 323 308 297 286 273 259 242 266 309 321 322 327 332 344 90 82 103 240 268 304 323 272 260 295 130 130 335 259 184 270 297 327 170 315 292 234 275 304 341 18 0 354 317 283 297 295 273 258 254 236 230 252 201 179 151 108 99 111 88 34 18 49 23 10 270 264 253 181 176 172 292 240 201 212 217 206 198 200 192 193 205 208 206 204 201 200
326 319 317 304 290 280 272 245 223 272 315 322 326 332 348 52 35 90 226 302 314 305 321 283 283 347 105 115 100 276 80 0 322 16 150 6 8 327 52 145 125 22 348 331 334 326 320 301 315 320 306 53 356 314 4 90 128 108 99 101 91 32 4 40 290 334 216 252 265 160 155 164 257 250 218 219 225 208 197 202 193 191 200 204 204 204 204 203
322 314 310 297 284 278 265 229 225 281 317 325 328 335 67 79 17 229 260 315 264 251 270 299 1 48 83 66 23 333 38 26 313 349 79 70 41 334 304 230 153 105 268 268 349 351 331 308 337 359 6 25 16 332 342 68 141 131 132 122 112 114 67 219 231 313 248 272 292 143 147 202 266 265 228 215 219 208 200 201 198 196 200 202 201 200 203 204
319 311 305 293 283 276 240 204 219 278 328 333 337 13 66 65 251 245 278 259 242 285 301 308 1 37 54 56 112 92 47 14 322 13 15 26 42 0 317 308 79 89 161 98 0 344 9 309 335 26 336 344 5 304 214 162 150 143 146 132 128 146 144 178 203 220 220 274 71 134 153 214 229 254 247 224 219 206 201 202 200 200 202 201 200 199 202 203
318 310 305 297 280 243 193 178 198 302 354 346 17 69 81 219 250 248 255 259 275 311 320 351 54 52 16 333 324 96 118 234 345 37 20 19 60 240 287 311 352 47 68 45 309 227 107 266 264 336 310 330 350 307 264 117 121 335 15 114 126 170 164 150 192 194 156 126 117 150 199 229 208 245 271 261 226 198 193 197 196 200 200 196 197 200 202 203
319 312 307 294 212 174 165 161 155 85 14 12 52 69 172 208 222 198 218 277 304 266 344 10 52 60 350 321 336 346 54 67 44 52 351 341 15 237 235 280 306 43 83 116 279 329 30 279 285 350 343 350 350 318 88 88 135 193 141 198 201 174 155 136 220 116 98 124 210 205 260 295 301 303 328 3 211 183 183 187 189 193 193 190 195 199 202 203
321 311 305 270 173 162 163 158 139 86 19 49 82 186 219 218 221 204 247 311 282 156 73 36 28 57 325 322 323 318 0 24 29 58 343 341 335 260 294 317 310 28 78 183 210 322 324 278 311 15 353 341 348 343 86 59 33 146 179 234 216 68 82 112 130 54 83 225 243 221 253 300 327 299 331 25 80 179 178 180 184 187 187 189 194 198 202 203
335 322 322 222 175 172 175 172 165 156 44 63 74 244 213 222 235 230 284 300 280 81 81 94 265 178 174 107 303 296 336 21 8 44 51 344 304 272 349 328 320 359 350 136 101 351 67 297 304 358 338 331 351 2 42 4 349 313 203 201 95 61 315 86 157 193 197 219 262 281 292 286 223 230 270 98 149 191 178 176 182 184 186 190 193 197 201 202
342 344 28 100 179 181 184 199 210 192 59 65 348 258 222 245 271 286 304 301 266 84 78 163 187 49 162 152 204 284 349 115 70 53 115 101 310 321 2 300 311 346 358 83 96 290 78 56 284 323 353 351 359 14 20 344 341 346 329 31 64 168 195 182 193 176 161 185 225 318 333 273 229 233 196 170 176 181 177 181 187 187 190 191 192 195 199 201
343 2 54 75 184 196 214 228 224 141 80 120 205 237 258 270 283 298 310 302 240 103 65 187 152 103 203 217 221 270 57 131 145 141 176 153 342 323 334 328 300 323 5 66 69 352 66 69 270 313 6 24 356 349 1 334 332 349 359 25 13 312 288 232 239 192 134 154 172 135 277 262 256 300 283 202 176 169 178 183 186 191 193 194 195 196 198 201
357 24 72 43 224 224 230 226 218 131 122 218 215 222 254 263 264 294 312 305 268 132 116 162 158 184 182 108 291 234 49 49 65 131 208 108 106 18 340 347 288 282 10 48 38 18 51 58 313 326 27 57 271 282 311 316 315 348 23 34 315 274 316 101 268 285 116 137 163 160 200 271 305 350 329 308 295 172 176 178 183 191 193 196 199 199 199 201
7 41 143 16 324 240 210 197 237 167 169 220 238 235 255 265 259 289 310 304 278 127 103 136 141 175 174 169 202 101 104 56 16 36 1 341 156 178 331 2 23 5 57 59 318 283 133 102 48 354 75 150 249 267 288 307 312 46 51 15 324 277 90 123 204 260 279 46 178 143 184 286 324 341 335 339 359 35 97 163 177 188 194 196 199 201 202 202
345 305 242 356 315 204 169 161 309 297 234 266 278 275 281 276 258 276 292 286 275 46 64 110 113 118 163 147 121 119 119 92 6 340 41 352 234 231 319 17 36 34 65 63 315 311 77 68 25 338 335 297 271 272 289 329 356 23 8 1 355 320 296 203 191 192 126 0 319 132 245 296 329 337 346 11 25 37 39 47 174 185 194 197 200 201 201 201
336 310 252 63 72 176 180 209 269 269 289 303 302 303 304 282 252 250 245 232 224 159 125 140 122 153 212 108 108 150 131 111 321 303 86 90 249 276 344 20 33 40 49 55 287 7 15 36 61 43 5 348 346 333 328 355 14 19 332 346 348 334 329 293 217 45 83 293 224 145 207 268 312 341 360 18 27 32 25 21 126 189 192 195 199 197 196 199
340 311 273 20 80 168 186 143 115 276 303 320 309 304 306 285 267 256 230 214 205 151 127 211 167 155 156 67 60 21 71 120 158 331 16 11 261 284 352 18 36 42 19 313 191 90 63 111 111 101 96 75 1 306 295 318 339 340 335 343 352 349 347 339 183 64 99 263 41 109 206 261 329 353 2 12 22 29 25 27 39 105 179 188 191 191 194 193
2 343 313 330 32 110 104 82 65 40 346 346 324 299 286 288 296 280 222 211 218 150 101 58 138 98 56 68 69 8 15 60 71 64 57 315 276 287 341 15 45 36 20 20 45 93 96 70 109 136 151 167 174 210 247 248 322 353 340 345 358 353 346 11 90 55 264 291 33 22 265 329 1 356 358 7 22 32 28 31 36 39 56 119 158 175 191 187
17 34 348 335 341 4 35 44 31 21 11 350 312 278 293 293 299 293 233 230 213 152 79 32 32 83 87 95 98 45 1 14 24 58 110 286 267 294 327 351 41 18 10 25 34 82 92 25 29 139 163 173 164 181 223 187 59 16 352 356 4 356 358 34 61 337 303 59 33 352 7 48 8 355 4 10 26 43 36 36 37 40 51 72 129 156 179 185
357 326 355 2 321 312 31 350 343 343 357 346 272 243 308 297 285 262 243 336 11 90 79 24 350 71 145 140 116 110 9 16 0 338 309 311 312 339 336 319 344 9 13 31 31 86 106 1 297 121 149 178 172 177 156 108 80 33 24 14 9 3 9 30 25 334 24 106 90 26 49 52 9 350 353 358 34 61 52 49 51 55 67 88 141 170 194 214
348 312 317 344 290 264 290 306 314 327 351 336 310 334 329 315 309 289 253 67 22 42 98 117 304 321 137 127 114 138 161 129 324 283 233 327 338 2 340 310 333 14 34 49 26 76 106 297 294 99 128 176 223 221 136 114 99 45 19 5 25 26 15 24 10 350 39 86 98 64 56 47 17 348 343 9 44 58 53 50 52 52 65 101 124 159 208 225
356 308 306 331 311 288 298 301 309 345 354 341 329 311 314 325 335 323 304 193 154 139 95 135 182 199 115 103 102 140 182 170 159 186 183 155 352 348 220 257 275 351 12 49 23 34 82 284 310 78 100 166 290 315 117 114 110 89 9 349 32 42 20 23 14 356 23 51 58 54 50 45 19 345 343 17 43 49 43 39 43 45 38 47 106 153 217 238
330 278 285 319 317 298 314 310 319 10 359 341 327 319 322 322 333 330 311 266 183 170 151 152 162 149 93 90 94 138 193 177 155 153 163 160 219 218 215 227 208 338 354 11 347 17 75 122 337 67 90 200 246 195 143 108 100 92 24 3 27 39 33 27 20 9 3 330 335 49 48 22 349 340 346 19 38 41 38 33 36 44 36 15 349 204 209 240
339 266 243 255 281 309 352 342 337 3 273 298 326 329 311 295 310 324 311 304 305 157 155 155 151 123 90 106 121 152 178 169 147 128 150 169 260 260 255 263 237 220 238 145 46 18 102 119 107 86 102 234 251 214 180 61 41 20 333 338 358 76 107 139 40 21 3 318 295 90 178 246 304 7 17 30 34 38 41 40 39 37 28 12 356 324 200 229